^^
Station Historical Data
Daily Summary for May 21, 2019 Units:  English    Metric   Both
« Previous Day
Next Day »
Daily Weekly Monthly Yearly Custom
  High: Low: Average:
Temperature: 59.3 °F 42.6 °F 52.1 °F
Dew Point: 41.6 °F 33.3 °F 37.3 °F
Humidity: 82% 38% 59%
Wind Speed: 28mph 2mph 11.5mph
Wind Gust: 33mph - -
Wind- - ENE
Pressure: 29.99 in 29.60 in -
Precipitation: 0 in    
Historical Graphs
 
 
Tabular Data for May 21, 2019
Time Temperature Dew Point Pressure Wind Wind Speed Wind Gust Humidity Rainfall Rate (Hourly) solar Conditions
00:04 46.1 °F 37.2 °F 29.98 in East 3 mph 4 mph 71% 0 in 0.00 W/m2
00:09 46 °F 37.5 °F 29.99 in East 3 mph 4 mph 72% 0 in 0.00 W/m2
00:14 45.9 °F 37.4 °F 29.99 in East 3 mph 4 mph 72% 0 in 0.00 W/m2
00:19 46 °F 37.5 °F 29.99 in East 4 mph 4 mph 72% 0 in 0.00 W/m2
00:24 46 °F 37.5 °F 29.99 in East 3 mph 4 mph 72% 0 in 0.00 W/m2
00:29 46 °F 37.5 °F 29.99 in East 3 mph 4 mph 72% 0 in 0.00 W/m2
00:34 45.9 °F 37.4 °F 29.99 in East 3 mph 4 mph 72% 0 in 0.00 W/m2
00:39 45.9 °F 37.4 °F 29.98 in East 2 mph 4 mph 72% 0 in 0.00 W/m2
00:44 45.7 °F 37.2 °F 29.98 in East 4 mph 4 mph 72% 0 in 0.00 W/m2
00:49 45.5 °F 37 °F 29.98 in ENE 3 mph 4 mph 72% 0 in 0.00 W/m2
00:54 45.4 °F 37.2 °F 29.98 in ENE 2 mph 5 mph 73% 0 in 0.00 W/m2
00:59 45.3 °F 37.2 °F 29.97 in ENE 3 mph 5 mph 73% 0 in 0.00 W/m2
01:04 45 °F 37.2 °F 29.97 in ENE 4 mph 5 mph 74% 0 in 0.00 W/m2
01:09 44.8 °F 37 °F 29.98 in ENE 4 mph 5 mph 74% 0 in 0.00 W/m2
01:14 44.6 °F 37.2 °F 29.98 in ENE 3 mph 5 mph 75% 0 in 0.00 W/m2
01:19 44.5 °F 37.4 °F 29.98 in ENE 4 mph 5 mph 76% 0 in 0.00 W/m2
01:24 44.5 °F 37.4 °F 29.98 in ENE 4 mph 5 mph 76% 0 in 0.00 W/m2
01:29 44.5 °F 37.4 °F 29.98 in ENE 4 mph 4 mph 76% 0 in 0.00 W/m2
01:34 44.4 °F 37.3 °F 29.97 in ENE 3 mph 5 mph 76% 0 in 0.00 W/m2
01:39 44.2 °F 37.1 °F 29.97 in ENE 3 mph 5 mph 76% 0 in 0.00 W/m2
01:44 44.1 °F 37 °F 29.97 in ENE 3 mph 5 mph 76% 0 in 0.00 W/m2
01:49 44.1 °F 37.3 °F 29.97 in ENE 3 mph 5 mph 77% 0 in 0.00 W/m2
01:54 44.2 °F 37.4 °F 29.97 in ENE 4 mph 5 mph 77% 0 in 0.00 W/m2
01:59 44.2 °F 37.4 °F 29.97 in ENE 4 mph 5 mph 77% 0 in 0.00 W/m2
02:04 44.1 °F 37.3 °F 29.96 in ENE 4 mph 5 mph 77% 0 in 0.00 W/m2
02:09 44 °F 37.6 °F 29.96 in ENE 3 mph 5 mph 78% 0 in 0.00 W/m2
02:14 43.9 °F 37.5 °F 29.96 in ENE 5 mph 5 mph 78% 0 in 0.00 W/m2
02:19 43.9 °F 37.5 °F 29.96 in ENE 5 mph 6 mph 78% 0 in 0.00 W/m2
02:24 43.9 °F 37.5 °F 29.95 in NE 4 mph 6 mph 78% 0 in 0.00 W/m2
02:29 43.8 °F 37.4 °F 29.95 in NE 5 mph 6 mph 78% 0 in 0.00 W/m2
02:34 43.7 °F 37.3 °F 29.95 in NE 5 mph 6 mph 78% 0 in 0.00 W/m2
02:39 43.6 °F 37.5 °F 29.95 in NE 5 mph 6 mph 79% 0 in 0.00 W/m2
02:44 43.5 °F 37.4 °F 29.95 in NE 4 mph 6 mph 79% 0 in 0.00 W/m2
02:49 43.5 °F 37.4 °F 29.96 in NE 6 mph 6 mph 79% 0 in 0.00 W/m2
02:54 43.5 °F 37.4 °F 29.95 in NE 5 mph 6 mph 79% 0 in 0.00 W/m2
02:59 43.4 °F 37.3 °F 29.95 in NE 5 mph 6 mph 79% 0 in 0.00 W/m2
03:04 43.4 °F 37.3 °F 29.96 in NE 4 mph 5 mph 79% 0 in 0.00 W/m2
03:09 43.4 °F 37.6 °F 29.96 in NE 5 mph 6 mph 80% 0 in 0.00 W/m2
03:14 43.5 °F 37.4 °F 29.96 in NE 4 mph 6 mph 79% 0 in 0.00 W/m2
03:19 43.6 °F 37.5 °F 29.96 in NE 3 mph 6 mph 79% 0 in 0.00 W/m2
03:24 43.6 °F 37.5 °F 29.96 in ENE 4 mph 6 mph 79% 0 in 0.00 W/m2
03:29 43.6 °F 37.8 °F 29.96 in NE 5 mph 6 mph 80% 0 in 0.00 W/m2
03:34 43.5 °F 37.7 °F 29.96 in NE 4 mph 6 mph 80% 0 in 0.00 W/m2
03:39 43.4 °F 37.6 °F 29.96 in NE 4 mph 6 mph 80% 0 in 0.00 W/m2
03:44 43.4 °F 37.6 °F 29.96 in NE 4 mph 6 mph 80% 0 in 0.00 W/m2
03:49 43.3 °F 37.9 °F 29.95 in NE 5 mph 6 mph 81% 0 in 0.00 W/m2
03:54 43.2 °F 37.8 °F 29.95 in NE 5 mph 6 mph 81% 0 in 0.00 W/m2
03:59 43 °F 37.6 °F 29.95 in NE 3 mph 7 mph 81% 0 in 0.00 W/m2
04:04 42.8 °F 37.4 °F 29.96 in NE 6 mph 7 mph 81% 0 in 0.00 W/m2
04:09 42.7 °F 37.3 °F 29.96 in NE 3 mph 6 mph 81% 0 in 0.00 W/m2
04:14 42.6 °F 37.5 °F 29.96 in NE 4 mph 7 mph 82% 0 in 0.00 W/m2
04:19 42.6 °F 37.5 °F 29.96 in ENE 4 mph 7 mph 82% 0 in 0.00 W/m2
04:24 42.7 °F 37.6 °F 29.96 in ENE 4 mph 8 mph 82% 0 in 0.00 W/m2
04:29 43.1 °F 37.7 °F 29.96 in ENE 5 mph 8 mph 81% 0 in 0.00 W/m2
04:34 43.6 °F 37.8 °F 29.95 in East 7 mph 9 mph 80% 0 in 0.00 W/m2
04:39 44 °F 37.9 °F 29.95 in ENE 6 mph 10 mph 79% 0 in 0.00 W/m2
04:44 44.2 °F 37.8 °F 29.94 in NE 7 mph 10 mph 78% 0 in 0.00 W/m2
04:49 44.3 °F 37.5 °F 29.94 in NE 3 mph 10 mph 77% 0 in 0.00 W/m2
04:54 44.4 °F 37.6 °F 29.94 in ENE 6 mph 10 mph 77% 0 in 0.00 W/m2
04:59 44.5 °F 37.4 °F 29.94 in ENE 9 mph 12 mph 76% 0 in 0.00 W/m2
05:04 44.5 °F 37.4 °F 29.93 in NE 5 mph 12 mph 76% 0 in 0.00 W/m2
05:09 44.5 °F 37.4 °F 29.93 in ENE 6 mph 11 mph 76% 0 in 0.00 W/m2
05:14 44.5 °F 37.4 °F 29.93 in East 5 mph 11 mph 76% 0 in 0.00 W/m2
05:19 44.4 °F 37 °F 29.93 in ENE 8 mph 11 mph 75% 0 in 0.00 W/m2
05:24 44.4 °F 37 °F 29.93 in ENE 12 mph 13 mph 75% 0 in 0.00 W/m2
05:29 44.3 °F 36.9 °F 29.93 in ENE 8 mph 13 mph 75% 0 in 0.00 W/m2
05:34 44 °F 36.9 °F 29.92 in ENE 6 mph 13 mph 76% 0 in 0.00 W/m2
05:39 43.8 °F 36.7 °F 29.92 in ENE 10 mph 12 mph 76% 0 in 0.00 W/m2
05:44 43.5 °F 36.8 °F 29.92 in NE 5 mph 13 mph 77% 0 in 0.00 W/m2
05:49 43.4 °F 36.7 °F 29.92 in ENE 4 mph 13 mph 77% 0 in 0.00 W/m2
05:54 43.2 °F 36.5 °F 29.92 in NE 5 mph 13 mph 77% 0 in 0.00 W/m2
05:59 43 °F 36.6 °F 29.93 in ENE 5 mph 13 mph 78% 0 in 5.00 W/m2
06:04 43 °F 36.6 °F 29.93 in NE 7 mph 11 mph 78% 0 in 5.00 W/m2
06:09 42.9 °F 36.5 °F 29.93 in East 8 mph 11 mph 78% 0 in 7.00 W/m2
06:14 43 °F 36.6 °F 29.93 in NE 6 mph 12 mph 78% 0 in 11.00 W/m2
06:19 43.2 °F 36.8 °F 29.92 in ENE 7 mph 12 mph 78% 0 in 14.00 W/m2
06:24 43.3 °F 37.2 °F 29.92 in ENE 9 mph 12 mph 79% 0 in 16.00 W/m2
06:29 43.3 °F 36.9 °F 29.92 in NE 5 mph 12 mph 78% 0 in 18.00 W/m2
06:34 43.4 °F 37 °F 29.91 in ENE 11 mph 13 mph 78% 0 in 21.00 W/m2
06:39 43.5 °F 37.1 °F 29.91 in ENE 6 mph 14 mph 78% 0 in 25.00 W/m2
06:44 43.6 °F 37.2 °F 29.91 in East 9 mph 14 mph 78% 0 in 32.00 W/m2
06:49 43.6 °F 37.2 °F 29.91 in NE 11 mph 14 mph 78% 0 in 40.00 W/m2
06:54 43.7 °F 37.3 °F 29.92 in NE 7 mph 14 mph 78% 0 in 51.00 W/m2
06:59 43.7 °F 37.3 °F 29.92 in NE 10 mph 12 mph 78% 0 in 54.00 W/m2
07:04 43.7 °F 37.3 °F 29.92 in NE 10 mph 12 mph 78% 0 in 63.00 W/m2
07:09 43.8 °F 37.4 °F 29.92 in NE 7 mph 12 mph 78% 0 in 72.00 W/m2
07:14 44.1 °F 37.7 °F 29.92 in ENE 13 mph 13 mph 78% 0 in 86.00 W/m2
07:19 44.5 °F 38.1 °F 29.92 in NE 9 mph 13 mph 78% 0 in 100.00 W/m2
07:24 44.8 °F 38 °F 29.91 in ENE 6 mph 13 mph 77% 0 in 105.00 W/m2
07:29 45.2 °F 38.1 °F 29.91 in ENE 5 mph 13 mph 76% 0 in 113.00 W/m2
07:34 45.6 °F 38.1 °F 29.91 in ENE 10 mph 13 mph 75% 0 in 116.00 W/m2
07:39 46 °F 38.2 °F 29.91 in NE 6 mph 13 mph 74% 0 in 120.00 W/m2
07:44 46.2 °F 38.4 °F 29.91 in ENE 8 mph 13 mph 74% 0 in 121.00 W/m2
07:49 46.5 °F 38.3 °F 29.91 in ENE 8 mph 14 mph 73% 0 in 123.00 W/m2
07:54 46.7 °F 38.1 °F 29.91 in NE 10 mph 14 mph 72% 0 in 91.00 W/m2
07:59 46.8 °F 38.2 °F 29.92 in ENE 13 mph 14 mph 72% 0 in 97.00 W/m2
08:04 46.9 °F 38.3 °F 29.91 in ENE 12 mph 16 mph 72% 0 in 109.00 W/m2
08:09 47 °F 38.4 °F 29.92 in East 8 mph 16 mph 72% 0 in 104.00 W/m2
08:14 47 °F 38.4 °F 29.92 in ENE 9 mph 16 mph 72% 0 in 109.00 W/m2
08:19 47.2 °F 39 °F 29.92 in ENE 8 mph 16 mph 73% 0 in 135.00 W/m2
08:24 47.4 °F 38.8 °F 29.92 in NE 7 mph 16 mph 72% 0 in 139.00 W/m2
08:29 47.5 °F 38.9 °F 29.92 in ENE 10 mph 16 mph 72% 0 in 121.00 W/m2
08:34 47.5 °F 38.9 °F 29.93 in ENE 6 mph 17 mph 72% 0 in 128.00 W/m2
08:39 47.5 °F 38.9 °F 29.93 in ENE 10 mph 17 mph 72% 0 in 132.00 W/m2
08:44 47.7 °F 39.1 °F 29.92 in East 12 mph 17 mph 72% 0 in 146.00 W/m2
08:49 47.8 °F 39.6 °F 29.92 in East 12 mph 17 mph 73% 0 in 151.00 W/m2
08:54 48 °F 39.8 °F 29.92 in NE 7 mph 16 mph 73% 0 in 171.00 W/m2
08:59 48.3 °F 39.7 °F 29.92 in ENE 10 mph 16 mph 72% 0 in 179.00 W/m2
09:04 48.6 °F 40 °F 29.92 in ENE 11 mph 17 mph 72% 0 in 179.00 W/m2
09:09 48.9 °F 39.9 °F 29.91 in ENE 8 mph 17 mph 71% 0 in 169.00 W/m2
09:14 49.3 °F 39.9 °F 29.91 in ENE 11 mph 16 mph 70% 0 in 158.00 W/m2
09:19 49.5 °F 39.7 °F 29.91 in ENE 16 mph 18 mph 69% 0 in 165.00 W/m2
09:24 49.8 °F 39.7 °F 29.91 in ENE 12 mph 18 mph 68% 0 in 214.00 W/m2
09:29 50.3 °F 40.5 °F 29.91 in NE 7 mph 18 mph 69% 0 in 306.00 W/m2
09:34 50.8 °F 40.2 °F 29.91 in NE 16 mph 18 mph 67% 0 in 320.00 W/m2
09:39 51.4 °F 41.2 °F 29.90 in ENE 13 mph 19 mph 68% 0 in 455.00 W/m2
09:44 52.1 °F 41.1 °F 29.90 in NE 9 mph 19 mph 66% 0 in 413.00 W/m2
09:49 52.6 °F 40.8 °F 29.90 in East 17 mph 21 mph 64% 0 in 353.00 W/m2
09:54 52.8 °F 40.5 °F 29.90 in NE 12 mph 23 mph 63% 0 in 345.00 W/m2
09:59 53.1 °F 40.4 °F 29.90 in ENE 13 mph 23 mph 62% 0 in 336.00 W/m2
10:04 53.5 °F 40.8 °F 29.90 in ENE 13 mph 23 mph 62% 0 in 383.00 W/m2
10:09 54.1 °F 40.9 °F 29.89 in East 15 mph 24 mph 61% 0 in 364.00 W/m2
10:14 54.2 °F 41 °F 29.90 in ENE 14 mph 24 mph 61% 0 in 343.00 W/m2
10:19 54.2 °F 40.6 °F 29.90 in East 15 mph 25 mph 60% 0 in 348.00 W/m2
10:24 54.4 °F 40.8 °F 29.89 in ENE 11 mph 25 mph 60% 0 in 313.00 W/m2
10:29 54.3 °F 40.3 °F 29.89 in East 16 mph 27 mph 59% 0 in 288.00 W/m2
10:34 54 °F 40.4 °F 29.89 in East 20 mph 27 mph 60% 0 in 258.00 W/m2
10:39 53.9 °F 40.8 °F 29.89 in East 16 mph 26 mph 61% 0 in 274.00 W/m2
10:44 54 °F 40.8 °F 29.89 in ESE 24 mph 27 mph 61% 0 in 322.00 W/m2
10:49 54.1 °F 40.5 °F 29.89 in ESE 16 mph 27 mph 60% 0 in 345.00 W/m2
10:54 54.2 °F 40.6 °F 29.89 in ENE 15 mph 25 mph 60% 0 in 476.00 W/m2
10:59 54.7 °F 41.1 °F 29.89 in ESE 15 mph 26 mph 60% 0 in 615.00 W/m2
11:04 55.3 °F 41.6 °F 29.89 in East 14 mph 26 mph 60% 0 in 580.00 W/m2
11:09 55.7 °F 41.6 °F 29.88 in ESE 19 mph 26 mph 59% 0 in 508.00 W/m2
11:14 55.7 °F 39.8 °F 29.89 in ENE 12 mph 30 mph 55% 0 in 650.00 W/m2
11:19 56.3 °F 40.8 °F 29.88 in ESE 19 mph 30 mph 56% 0 in 628.00 W/m2
11:24 56.1 °F 40.6 °F 29.88 in ESE 23 mph 24 mph 56% 0 in 485.00 W/m2
11:29 55.8 °F 39.9 °F 29.88 in East 16 mph 27 mph 55% 0 in 503.00 W/m2
11:34 55.8 °F 40.3 °F 29.88 in East 15 mph 30 mph 56% 0 in 552.00 W/m2
11:39 56.2 °F 40.7 °F 29.88 in ESE 14 mph 30 mph 56% 0 in 522.00 W/m2
11:44 56.5 °F 40.5 °F 29.88 in East 15 mph 30 mph 55% 0 in 656.00 W/m2
11:49 56.9 °F 39.9 °F 29.87 in East 17 mph 30 mph 53% 0 in 643.00 W/m2
11:54 56.8 °F 40.3 °F 29.87 in East 19 mph 24 mph 54% 0 in 626.00 W/m2
11:59 57.2 °F 40.2 °F 29.87 in East 17 mph 24 mph 53% 0 in 649.00 W/m2
12:04 57.2 °F 40.7 °F 29.87 in NE 14 mph 24 mph 54% 0 in 679.00 W/m2
12:09 56.7 °F 39.3 °F 29.87 in East 21 mph 24 mph 52% 0 in 487.00 W/m2
12:14 56.4 °F 39.5 °F 29.87 in East 20 mph 28 mph 53% 0 in 536.00 W/m2
12:19 56.5 °F 39.6 °F 29.86 in ESE 13 mph 28 mph 53% 0 in 475.00 W/m2
12:24 56.5 °F 38.6 °F 29.86 in East 24 mph 28 mph 51% 0 in 540.00 W/m2
12:29 56.4 °F 39.5 °F 29.86 in ESE 17 mph 28 mph 53% 0 in 531.00 W/m2
12:34 56.5 °F 38.6 °F 29.86 in ESE 12 mph 26 mph 51% 0 in 441.00 W/m2
12:39 56.3 °F 38.9 °F 29.86 in ENE 18 mph 26 mph 52% 0 in 420.00 W/m2
12:44 56 °F 38.6 °F 29.86 in ESE 23 mph 26 mph 52% 0 in 373.00 W/m2
12:49 55.9 °F 39 °F 29.86 in ESE 19 mph 25 mph 53% 0 in 394.00 W/m2
12:54 55.8 °F 39.4 °F 29.86 in East 17 mph 25 mph 54% 0 in 381.00 W/m2
12:59 55.9 °F 39.5 °F 29.86 in ESE 17 mph 25 mph 54% 0 in 353.00 W/m2
13:04 55.9 °F 39.5 °F 29.86 in ESE 12 mph 23 mph 54% 0 in 309.00 W/m2
13:09 55.9 °F 39.5 °F 29.86 in East 12 mph 25 mph 54% 0 in 288.00 W/m2
13:14 55.8 °F 39.4 °F 29.86 in East 20 mph 25 mph 54% 0 in 283.00 W/m2
13:19 55.6 °F 39.2 °F 29.86 in ESE 19 mph 23 mph 54% 0 in 301.00 W/m2
13:24 55.7 °F 39.3 °F 29.86 in East 22 mph 23 mph 54% 0 in 308.00 W/m2
13:29 55.7 °F 39.3 °F 29.86 in East 13 mph 22 mph 54% 0 in 306.00 W/m2
13:34 56 °F 39.6 °F 29.85 in East 20 mph 22 mph 54% 0 in 341.00 W/m2
13:39 56.1 °F 38.7 °F 29.84 in ENE 18 mph 22 mph 52% 0 in 418.00 W/m2
13:44 56.4 °F 39 °F 29.85 in ESE 17 mph 26 mph 52% 0 in 452.00 W/m2
13:49 56.6 °F 39.7 °F 29.85 in ENE 14 mph 26 mph 53% 0 in 454.00 W/m2
13:54 56.8 °F 38.9 °F 29.84 in East 17 mph 26 mph 51% 0 in 452.00 W/m2
13:59 56.8 °F 39.4 °F 29.84 in East 10 mph 26 mph 52% 0 in 448.00 W/m2
14:04 56.9 °F 39.4 °F 29.84 in ENE 18 mph 26 mph 52% 0 in 464.00 W/m2
14:09 56.9 °F 39.4 °F 29.84 in East 20 mph 26 mph 52% 0 in 468.00 W/m2
14:14 57.3 °F 39.3 °F 29.84 in East 14 mph 25 mph 51% 0 in 471.00 W/m2
14:19 57.3 °F 38.8 °F 29.84 in ESE 10 mph 26 mph 50% 0 in 445.00 W/m2
14:24 57.3 °F 38.3 °F 29.83 in East 15 mph 26 mph 49% 0 in 441.00 W/m2
14:29 57.2 °F 37.7 °F 29.83 in ENE 15 mph 24 mph 48% 0 in 466.00 W/m2
14:34 57.5 °F 38.5 °F 29.83 in ENE 15 mph 24 mph 49% 0 in 450.00 W/m2
14:39 57.3 °F 37.8 °F 29.82 in ENE 16 mph 24 mph 48% 0 in 432.00 W/m2
14:44 57.5 °F 39 °F 29.83 in ENE 11 mph 24 mph 50% 0 in 420.00 W/m2
14:49 57.7 °F 38.7 °F 29.82 in SE 25 mph 25 mph 49% 0 in 415.00 W/m2
14:54 57.6 °F 38 °F 29.82 in ENE 18 mph 26 mph 48% 0 in 397.00 W/m2
14:59 57.5 °F 37.4 °F 29.82 in East 26 mph 28 mph 47% 0 in 387.00 W/m2
15:04 57.3 °F 36.7 °F 29.82 in ENE 21 mph 30 mph 46% 0 in 378.00 W/m2
15:09 57.4 °F 37.9 °F 29.81 in ENE 15 mph 30 mph 48% 0 in 374.00 W/m2
15:14 57.7 °F 38.7 °F 29.81 in ENE 23 mph 30 mph 49% 0 in 381.00 W/m2
15:19 57.7 °F 38.7 °F 29.81 in NE 22 mph 30 mph 49% 0 in 374.00 W/m2
15:24 58 °F 39.5 °F 29.80 in East 21 mph 27 mph 50% 0 in 345.00 W/m2
15:29 57.8 °F 37.7 °F 29.80 in East 17 mph 26 mph 47% 0 in 336.00 W/m2
15:34 57.7 °F 38.1 °F 29.80 in ENE 13 mph 26 mph 48% 0 in 325.00 W/m2
15:39 57.8 °F 38.2 °F 29.80 in East 12 mph 26 mph 48% 0 in 316.00 W/m2
15:44 57.6 °F 37 °F 29.79 in NE 10 mph 30 mph 46% 0 in 332.00 W/m2
15:49 57.7 °F 36.5 °F 29.79 in NE 10 mph 30 mph 45% 0 in 332.00 W/m2
15:54 57.8 °F 37.1 °F 29.79 in NE 16 mph 30 mph 46% 0 in 327.00 W/m2
15:59 57.9 °F 36.7 °F 29.78 in ENE 18 mph 30 mph 45% 0 in 346.00 W/m2
16:04 58 °F 36.2 °F 29.78 in NE 13 mph 26 mph 44% 0 in 355.00 W/m2
16:09 58.2 °F 35.2 °F 29.78 in ENE 21 mph 26 mph 42% 0 in 346.00 W/m2
16:14 58.1 °F 35.1 °F 29.78 in ENE 20 mph 30 mph 42% 0 in 338.00 W/m2
16:19 58.2 °F 35.2 °F 29.78 in ENE 28 mph 30 mph 42% 0 in 336.00 W/m2
16:24 58.3 °F 35.3 °F 29.77 in East 16 mph 30 mph 42% 0 in 329.00 W/m2
16:29 58.4 °F 34.8 °F 29.77 in ENE 26 mph 28 mph 41% 0 in 327.00 W/m2
16:34 58.2 °F 34.6 °F 29.77 in ENE 15 mph 30 mph 41% 0 in 320.00 W/m2
16:39 58.4 °F 34.8 °F 29.77 in NE 17 mph 30 mph 41% 0 in 304.00 W/m2
16:44 58.3 °F 34.7 °F 29.76 in ENE 15 mph 30 mph 41% 0 in 299.00 W/m2
16:49 58.5 °F 35.5 °F 29.76 in East 25 mph 30 mph 42% 0 in 297.00 W/m2
16:54 58.5 °F 36.1 °F 29.76 in ENE 13 mph 30 mph 43% 0 in 294.00 W/m2
16:59 58.6 °F 35.6 °F 29.75 in East 16 mph 27 mph 42% 0 in 267.00 W/m2
17:04 58.6 °F 36.2 °F 29.75 in ENE 9 mph 27 mph 43% 0 in 260.00 W/m2
17:09 58.9 °F 35.8 °F 29.75 in ENE 16 mph 27 mph 42% 0 in 281.00 W/m2
17:14 59 °F 35.3 °F 29.75 in ENE 15 mph 24 mph 41% 0 in 301.00 W/m2
17:19 59.2 °F 35.5 °F 29.74 in ENE 11 mph 27 mph 41% 0 in 276.00 W/m2
17:24 59.3 °F 34.3 °F 29.74 in NE 13 mph 27 mph 39% 0 in 229.00 W/m2
17:29 59.1 °F 34.1 °F 29.74 in ENE 17 mph 28 mph 39% 0 in 200.00 W/m2
17:34 59.1 °F 33.5 °F 29.74 in NE 17 mph 28 mph 38% 0 in 186.00 W/m2
17:39 59.1 °F 33.5 °F 29.74 in ENE 17 mph 28 mph 38% 0 in 179.00 W/m2
17:44 59.1 °F 34.1 °F 29.73 in ENE 19 mph 33 mph 39% 0 in 188.00 W/m2
17:49 59.1 °F 33.5 °F 29.73 in East 18 mph 33 mph 38% 0 in 195.00 W/m2
17:54 59.1 °F 33.5 °F 29.73 in ENE 12 mph 24 mph 38% 0 in 183.00 W/m2
17:59 59 °F 33.4 °F 29.73 in ENE 11 mph 33 mph 38% 0 in 171.00 W/m2
18:04 59 °F 34.1 °F 29.73 in ENE 15 mph 33 mph 39% 0 in 162.00 W/m2
18:09 58.9 °F 33.3 °F 29.73 in ENE 16 mph 25 mph 38% 0 in 176.00 W/m2
18:14 58.9 °F 34 °F 29.73 in ENE 11 mph 25 mph 39% 0 in 188.00 W/m2
18:19 58.9 °F 34 °F 29.73 in NE 11 mph 25 mph 39% 0 in 181.00 W/m2
18:24 59 °F 34.1 °F 29.73 in East 22 mph 25 mph 39% 0 in 162.00 W/m2
18:29 59.1 °F 33.5 °F 29.72 in ENE 17 mph 26 mph 38% 0 in 158.00 W/m2
18:34 59 °F 34.1 °F 29.72 in ENE 17 mph 26 mph 39% 0 in 153.00 W/m2
18:39 59 °F 34.1 °F 29.72 in ESE 14 mph 27 mph 39% 0 in 142.00 W/m2
18:44 58.9 °F 33.3 °F 29.71 in ENE 17 mph 27 mph 38% 0 in 128.00 W/m2
18:49 58.8 °F 33.9 °F 29.71 in ENE 16 mph 26 mph 39% 0 in 127.00 W/m2
18:54 58.7 °F 33.8 °F 29.71 in ENE 9 mph 26 mph 39% 0 in 125.00 W/m2
18:59 58.7 °F 34.4 °F 29.70 in ENE 13 mph 26 mph 40% 0 in 123.00 W/m2
19:04 58.7 °F 34.4 °F 29.70 in ENE 13 mph 26 mph 40% 0 in 120.00 W/m2
19:09 58.7 °F 34.4 °F 29.70 in East 17 mph 22 mph 40% 0 in 113.00 W/m2
19:14 58.7 °F 34.4 °F 29.70 in ENE 19 mph 22 mph 40% 0 in 111.00 W/m2
19:19 58.7 °F 34.4 °F 29.69 in ENE 14 mph 23 mph 40% 0 in 116.00 W/m2
19:24 58.7 °F 35 °F 29.69 in NE 12 mph 23 mph 41% 0 in 127.00 W/m2
19:29 58.7 °F 35 °F 29.69 in NNE 13 mph 23 mph 41% 0 in 125.00 W/m2
19:34 58.7 °F 34.4 °F 29.68 in ENE 14 mph 23 mph 40% 0 in 121.00 W/m2
19:39 58.7 °F 34.4 °F 29.68 in ENE 16 mph 25 mph 40% 0 in 123.00 W/m2
19:44 58.7 °F 35 °F 29.68 in ENE 10 mph 25 mph 41% 0 in 114.00 W/m2
19:49 58.7 °F 35 °F 29.68 in East 17 mph 22 mph 41% 0 in 97.00 W/m2
19:54 58.7 °F 35 °F 29.68 in East 11 mph 22 mph 41% 0 in 79.00 W/m2
19:59 58.6 °F 35.6 °F 29.68 in ENE 16 mph 23 mph 42% 0 in 65.00 W/m2
20:04 58.7 °F 34.4 °F 29.68 in NE 15 mph 26 mph 40% 0 in 54.00 W/m2
20:09 58.7 °F 34.4 °F 29.68 in ENE 21 mph 26 mph 40% 0 in 44.00 W/m2
20:14 58.7 °F 34.4 °F 29.68 in ENE 10 mph 26 mph 40% 0 in 37.00 W/m2
20:19 58.6 °F 34.3 °F 29.68 in NE 15 mph 26 mph 40% 0 in 33.00 W/m2
20:24 58.5 °F 34.2 °F 29.68 in ENE 14 mph 22 mph 40% 0 in 30.00 W/m2
20:29 58.4 °F 34.8 °F 29.68 in ENE 12 mph 22 mph 41% 0 in 23.00 W/m2
20:34 58.2 °F 34.6 °F 29.68 in ENE 16 mph 22 mph 41% 0 in 18.00 W/m2
20:39 58.1 °F 35.1 °F 29.68 in ENE 10 mph 19 mph 42% 0 in 14.00 W/m2
20:44 58 °F 35 °F 29.67 in ESE 9 mph 19 mph 42% 0 in 11.00 W/m2
20:49 57.8 °F 35.4 °F 29.67 in ENE 10 mph 19 mph 43% 0 in 11.00 W/m2
20:54 57.7 °F 34.7 °F 29.67 in NE 13 mph 19 mph 42% 0 in 7.00 W/m2
20:59 57.6 °F 35.2 °F 29.67 in NE 9 mph 20 mph 43% 0 in 5.00 W/m2
21:04 57.5 °F 35.2 °F 29.67 in NE 12 mph 20 mph 43% 0 in 0.00 W/m2
21:09 57.2 °F 35.5 °F 29.67 in ENE 13 mph 20 mph 44% 0 in 0.00 W/m2
21:14 57.1 °F 35.4 °F 29.67 in NE 10 mph 20 mph 44% 0 in 0.00 W/m2
21:19 57 °F 35.3 °F 29.67 in East 7 mph 19 mph 44% 0 in 0.00 W/m2
21:24 56.9 °F 35.2 °F 29.67 in East 9 mph 19 mph 44% 0 in 0.00 W/m2
21:29 56.8 °F 35.7 °F 29.67 in East 7 mph 19 mph 45% 0 in 0.00 W/m2
21:34 56.7 °F 35.6 °F 29.67 in ENE 14 mph 19 mph 45% 0 in 0.00 W/m2
21:39 56.6 °F 36 °F 29.67 in NE 7 mph 19 mph 46% 0 in 0.00 W/m2
21:44 56.4 °F 35.9 °F 29.67 in NE 7 mph 19 mph 46% 0 in 0.00 W/m2
21:49 56.3 °F 36.3 °F 29.67 in NE 9 mph 17 mph 47% 0 in 0.00 W/m2
21:54 56 °F 36.6 °F 29.67 in NE 9 mph 17 mph 48% 0 in 0.00 W/m2
21:59 55.6 °F 36.2 °F 29.67 in NE 14 mph 15 mph 48% 0 in 0.00 W/m2
22:04 55.4 °F 37.1 °F 29.66 in NE 10 mph 15 mph 50% 0 in 0.00 W/m2
22:09 55.2 °F 36.9 °F 29.66 in NE 10 mph 15 mph 50% 0 in 0.00 W/m2
22:14 55.2 °F 36.9 °F 29.66 in ENE 9 mph 15 mph 50% 0 in 0.00 W/m2
22:19 55.1 °F 36.8 °F 29.65 in NE 14 mph 18 mph 50% 0 in 0.00 W/m2
22:24 55.1 °F 36.8 °F 29.65 in East 14 mph 18 mph 50% 0 in 0.00 W/m2
22:29 55.2 °F 36.9 °F 29.65 in NNE 9 mph 19 mph 50% 0 in 0.00 W/m2
22:34 55.2 °F 36.4 °F 29.64 in NNE 10 mph 19 mph 49% 0 in 0.00 W/m2
22:39 55.3 °F 35.9 °F 29.64 in NE 11 mph 18 mph 48% 0 in 0.00 W/m2
22:44 55.4 °F 36 °F 29.64 in NE 19 mph 19 mph 48% 0 in 0.00 W/m2
22:49 55.5 °F 36.1 °F 29.64 in NE 9 mph 19 mph 48% 0 in 0.00 W/m2
22:54 55.5 °F 35.6 °F 29.64 in NE 14 mph 23 mph 47% 0 in 0.00 W/m2
22:59 55.5 °F 35.6 °F 29.63 in NE 12 mph 23 mph 47% 0 in 0.00 W/m2
23:04 55.5 °F 35.6 °F 29.63 in NE 18 mph 22 mph 47% 0 in 0.00 W/m2
23:09 55.4 °F 35.5 °F 29.63 in NE 18 mph 23 mph 47% 0 in 0.00 W/m2
23:14 55.6 °F 35.7 °F 29.62 in NE 16 mph 23 mph 47% 0 in 0.00 W/m2
23:19 55.5 °F 35.6 °F 29.62 in NE 13 mph 22 mph 47% 0 in 0.00 W/m2
23:24 55.3 °F 36.5 °F 29.62 in NE 11 mph 22 mph 49% 0 in 0.00 W/m2
23:29 55 °F 36.7 °F 29.62 in NE 11 mph 22 mph 50% 0 in 0.00 W/m2
23:34 54.8 °F 37 °F 29.62 in NE 15 mph 20 mph 51% 0 in 0.00 W/m2
23:39 54.7 °F 36.4 °F 29.61 in NE 16 mph 21 mph 50% 0 in 0.00 W/m2
23:44 54.6 °F 36.8 °F 29.61 in NE 13 mph 21 mph 51% 0 in 0.00 W/m2
23:49 54.6 °F 36.8 °F 29.61 in NE 11 mph 21 mph 51% 0 in 0.00 W/m2
23:54 54.5 °F 36.7 °F 29.60 in NE 15 mph 21 mph 51% 0 in 0.00 W/m2
23:59 54.4 °F 36.6 °F 29.60 in NE 11 mph 19 mph 51% 0 in 0.00 W/m2
Bismarck, North Dakota, USA
Compliments of Weather Underground - 4 mb